Home   Weather   Walsrode   Past weeks

Flag for Germany Past Weather in Walsrode, Lower Saxony, Germany — Yesterday and Last 2 Weeks

Now
21 °F

Light fog.


Feels Like: 16 °F
Forecast: 21 / 33 °F
Wind: 3 mph from East

Location: Fassberg

Current Time: Dec 4, 2016 at 9:19:23 pm

Latest Report: Dec 4, 2016 at 8:20 pm


Visibility: 1 mi

Pressure: 30.42 "Hg

Humidity: 100%

Dew Point: 21 °F

Location of WalsrodeLocation

Past Weather in Walsrode — Graph

°F

Walsrode Temperature Yesterday

Maximum temperature yesterday: 37 °F (at 1:20 pm)
Minimum temperature yesterday: 18 °F (at 8:20 am)
Average temperature yesterday: 25 °F

High & Low Weather Summary for the Past Weeks

 TemperatureHumidityPressure
High59 °F (Nov 21, 11:20 am)100% (Nov 22, 8:20 pm)30.57 "Hg (Nov 22, 8:20 pm)
Low14 °F (Nov 29, 4:20 am)49% (Dec 2, 2:20 pm)29.39 "Hg (Nov 20, 3:20 pm)
Average36 °F86%30.12 "Hg
* Reported Nov 19 7:20 pm — Dec 4 7:20 pm, Walsrode, Weather by CustomWeather, © 2016

Note: Actual official high and low records may vary slightly from our data, if they occured in-between our weather recording intervals... More about our weather records

Advertising

Walsrode Weather History for the Previous 24 Hours

Scroll right to see more
 ConditionsComfort  
Time TempWeatherWind HumidityBarometerVisibility
7:20 pm
Sun, Dec 4
25 °FIce fog.1 mph93%30.42 "Hg0 mi
6:20 pm25 °FIce fog.3 mph93%30.42 "Hg0 mi
5:20 pm27 °FIce fog.No wind93%30.42 "Hg0 mi
4:20 pm28 °FIce fog.No wind93%30.42 "Hg0 mi
3:20 pm32 °FIce fog.1 mph93%30.42 "Hg1 mi
2:20 pm32 °FIce fog.1 mph93%30.42 "Hg1 mi
1:20 pm32 °FIce fog.1 mph93%30.42 "Hg1 mi
12:20 pm28 °FIce fog.2 mph93%30.42 "Hg1 mi
11:20 am27 °FIce fog.1 mph100%30.42 "Hg3 mi
10:50 am25 °FIce fog.No wind100%30.42 "Hg2 mi
10:20 am25 °FIce fog.2 mph93%30.42 "Hg1 mi
9:50 am23 °FIce fog.No wind93%30.42 "Hg1 mi
9:20 am21 °FIce fog.1 mph93%30.42 "Hg0 mi
8:20 am21 °FIce fog.No wind93%30.39 "Hg0 mi
7:20 am21 °FIce fog.No wind93%30.39 "Hg0 mi
6:20 am21 °FIce fog.1 mph93%30.36 "Hg0 mi
5:20 am23 °FIce fog.1 mph93%30.36 "Hg0 mi
4:20 am23 °FIce fog.No wind93%30.36 "Hg0 mi
3:20 am23 °FIce fog.No wind93%30.36 "Hg0 mi
2:20 am21 °FIce fog.No wind93%30.36 "Hg0 mi
1:20 am21 °FIce fog.No wind93%30.36 "Hg0 mi
12:20 am21 °FIce fog.1 mph93%30.36 "Hg0 mi
11:20 pm
Sat, Dec 3
23 °FIce fog.No wind93%30.36 "Hg0 mi
10:20 pm23 °FIce fog.1 mph93%30.36 "Hg0 mi
9:20 pm21 °FIce fog.2 mph100%30.36 "Hg0 mi
Weather by CustomWeather, © 2016

See weather overviewHow to use our weather pages